FLOCK 2E'-2

Last updated on Fri Dec 01 2017 00:15:05 GMT+0000 (Coordinated Universal Time)

1 41481U 98067JB 17334.77617065 .16809613 12434-4 52553-3 0 9990 2 41481 51.6166 233.3710 0007521 225.1371 134.8092 16.44458340 88170

Satellite not in orbit